Wind_Speed
25 25 26 26 26 26 24 23 24 24 24 24 24 24 24 25 26 27 25 23 23 23 23 23 22 22 22 22 22 22 22 22 21 21 20 20 20 19 18 18 17 17 17 17 16 16 16 16 16
27 27 27 27 28 27 26 26 26 25 24 25 25 26 27 27 28 27 26 25 25 25 25 25 25 25 24 24 24 24 24 24 24 23 23 22 22 21 21 20 20 19 19 18 18 18 18 18 18
28 29 29 29 29 28 28 28 27 26 26 26 27 28 29 29 29 28 28 28 28 27 27 27 27 27 27 27 26 26 26 25 25 25 25 25 24 24 23 23 22 22 22 21 21 21 20 20 20
28 30 31 31 29 29 30 30 29 28 29 28 29 30 30 30 30 31 30 30 30 30 29 30 30 29 29 29 29 29 28 28 28 27 27 27 27 27 26 26 25 25 24 24 24 23 23 22 22
29 30 32 32 31 31 32 32 32 32 31 31 31 31 31 31 32 32 32 32 32 32 32 31 32 32 32 31 31 32 32 31 31 30 29 29 29 29 29 28 28 27 27 26 26 25 25 25 24
28 30 32 32 32 32 33 33 33 34 34 33 33 33 32 33 33 33 34 33 33 33 33 33 34 34 34 34 34 34 34 34 33 33 32 32 32 32 32 31 31 30 30 29 28 28 26 26 26
27 29 30 31 32 33 33 33 34 35 35 35 35 36 34 36 35 35 35 35 34 34 34 34 35 35 35 35 35 35 35 35 36 36 35 35 34 34 34 34 33 33 33 32 32 30 29 29 28
27 29 29 30 31 32 33 33 34 35 35 36 36 37 36 37 37 36 37 36 36 36 36 36 37 37 37 37 37 38 37 37 37 38 38 37 37 37 37 36 36 35 35 35 34 33 32 31 31
27 28 29 30 31 32 32 33 34 35 35 36 36 37 37 38 38 38 39 39 39 39 39 40 40 39 39 39 40 40 40 39 40 40 40 39 39 39 39 38 38 37 37 36 36 35 34 34 33
27 29 29 30 31 32 32 33 34 34 35 36 37 37 37 38 38 39 40 40 40 41 42 42 42 42 42 42 42 42 42 42 42 42 42 42 41 41 41 40 40 39 39 38 37 37 36 35 35
27 28 28 30 31 32 32 33 34 34 34 36 36 37 37 38 38 39 40 41 42 43 43 44 44 44 45 45 45 45 45 45 45 45 45 44 44 44 43 43 42 41 40 40 39 38 38 37 36
26 26 27 28 30 31 31 32 33 34 35 36 36 37 37 38 38 39 40 42 43 43 44 45 46 46 46 47 47 46 46 46 46 46 46 46 46 46 46 45 44 44 43 42 41 40 40 39 39
26 26 27 28 29 30 31 32 33 34 36 36 37 37 37 38 39 40 41 42 43 44 45 46 47 47 48 48 48 48 48 48 48 48 48 48 47 47 47 47 46 45 44 44 43 42 41 41 40
26 26 27 28 29 30 31 32 33 33 36 37 38 38 38 39 39 40 41 43 44 45 46 47 48 49 49 49 50 50 50 50 50 50 49 49 49 49 49 48 47 46 46 45 45 44 44 43 42
27 27 27 28 30 30 32 32 32 33 35 37 38 39 40 40 40 41 42 43 45 46 47 48 49 50 51 51 52 52 52 52 51 51 51 51 50 50 50 49 49 49 48 47 47 47 46 45 44
28 29 29 29 31 31 32 31 32 34 35 37 38 40 41 41 41 42 43 44 45 46 47 49 50 50 52 52 53 54 54 54 53 52 53 53 53 52 51 51 51 50 50 50 49 49 48 47 47
29 30 30 31 32 33 34 32 32 34 36 36 38 40 42 42 42 43 43 44 46 47 47 48 48 49 50 52 53 54 55 55 54 54 54 54 55 54 54 54 53 52 51 51 51 51 50 50 49
31 31 31 32 33 34 35 34 34 35 36 37 38 39 41 43 43 44 44 45 46 46 47 47 47 47 48 50 52 53 54 54 54 55 54 55 55 55 55 54 54 54 53 53 53 53 53 52 50
33 33 33 32 34 35 36 35 35 37 37 38 39 40 41 43 44 44 44 45 45 45 46 46 47 47 47 49 50 51 52 53 54 55 54 54 54 55 55 55 55 55 55 55 55 55 55 54 53
34 35 35 35 35 37 37 37 36 37 38 39 40 41 42 44 44 44 45 45 45 45 45 45 46 46 47 48 48 49 50 51 53 55 54 55 55 55 56 55 55 55 56 56 56 56 56 56 54
35 36 36 37 37 37 39 38 36 37 38 39 41 41 42 43 43 44 45 45 44 44 44 45 45 45 45 46 46 47 48 49 50 53 55 56 56 55 55 56 56 56 57 57 57 57 57 56 55
37 37 38 38 39 39 40 41 37 37 38 39 40 40 41 42 43 44 44 44 44 43 44 44 44 43 44 45 46 46 46 47 48 51 53 54 55 55 56 57 57 56 56 56 56 56 56 56 55
39 39 40 40 41 42 40 43 39 38 38 39 39 40 41 41 42 43 43 43 43 43 43 42 43 43 44 44 45 46 47 48 49 50 52 52 53 54 55 55 55 55 55 54 55 55 56 56 55
39 40 41 42 43 43 40 42 42 39 39 39 40 40 41 41 42 42 42 42 42 43 43 42 42 43 43 44 45 46 47 48 49 49 51 51 52 54 53 53 53 53 53 52 52 53 54 53 54
39 40 41 43 43 43 42 43 42 41 40 40 40 40 40 41 41 42 42 42 43 43 43 43 43 42 42 43 44 45 46 47 47 47 48 50 51 51 50 51 51 51 52 51 51 51 52 52 52
40 39 40 42 44 44 43 43 42 42 42 42 41 40 40 40 41 42 42 42 43 44 44 43 43 43 43 43 44 45 45 45 45 46 47 47 48 49 49 50 51 51 51 50 49 50 50 50 49
39 39 39 41 43 44 43 43 42 41 42 42 41 40 41 41 41 41 42 42 42 43 43 43 44 44 42 42 43 44 44 44 44 44 45 45 46 48 49 50 50 49 48 48 48 48 48 48 48
39 39 39 40 42 43 43 41 41 40 40 41 41 40 40 41 41 41 42 42 43 43 44 43 44 44 43 43 42 42 42 42 43 44 44 44 45 46 48 48 48 48 48 48 47 47 47 48 48
39 40 40 41 41 43 43 41 39 40 40 40 40 40 40 41 41 41 41 42 43 44 44 43 43 43 44 43 40 40 40 40 41 42 43 43 44 45 46 46 45 45 45 46 47 47 47 47 47
40 40 40 41 41 42 43 42 38 39 39 40 41 41 41 41 41 41 42 42 43 43 43 43 42 41 42 41 40 39 38 39 40 40 40 41 42 42 42 42 43 43 44 44 44 45 46 46 46
Wind_Direction
250 249 248 248 248 248 248 246 246 244 244 245 246 247 247 248 249 251 253 252 251 249 248 248 248 249 249 249 249 250 251 250 250 250 249 249 249 249 251 253 254 255 255 256 258 261 260 263 265
251 250 249 249 248 249 248 246 246 246 246 246 247 248 248 249 251 253 254 253 251 250 249 249 249 250 250 251 251 251 252 252 251 251 251 251 251 251 251 253 254 255 256 257 259 260 261 262 265
251 251 251 250 249 250 249 248 249 249 248 248 248 249 250 251 252 253 253 253 252 252 251 250 250 251 251 251 251 252 253 253 253 253 252 253 253 253 253 254 254 255 256 258 260 260 261 262 263
253 252 252 252 251 251 251 252 252 251 250 250 251 251 251 251 252 253 253 253 254 253 252 252 252 252 253 253 253 253 254 254 253 254 254 254 255 255 255 255 255 256 257 258 260 261 260 261 263
255 254 253 253 253 252 252 253 253 252 251 251 252 253 253 252 252 253 253 253 254 255 254 254 254 254 254 254 255 254 254 255 254 254 255 255 255 255 256 257 257 256 257 258 260 262 263 261 263
258 257 256 256 255 254 253 253 253 254 254 252 253 253 254 254 253 254 255 256 256 256 257 256 256 256 256 255 255 255 255 255 255 255 255 256 257 256 256 257 258 257 258 258 259 261 262 263 263
260 258 258 258 256 255 255 254 254 254 255 255 255 255 254 255 255 255 256 257 257 258 258 258 257 257 257 256 256 256 256 256 256 256 256 256 257 257 257 257 258 259 259 259 260 261 261 261 263
262 260 260 259 259 258 257 255 255 255 256 257 256 256 255 255 256 256 256 257 257 258 258 258 258 258 257 257 257 257 257 257 257 257 256 256 257 258 257 258 259 260 260 259 260 261 260 261 262
265 263 261 261 260 259 258 257 256 256 257 257 257 258 257 257 257 257 257 257 257 258 259 259 258 258 258 258 258 258 258 257 257 257 257 257 257 258 259 259 259 260 261 260 260 260 261 261 262
265 265 263 262 261 260 259 258 257 257 257 258 258 259 259 259 258 258 258 258 258 259 260 260 259 259 259 259 259 258 258 257 257 257 257 257 258 258 259 260 260 260 260 260 260 260 260 261 262
267 267 265 263 262 262 261 260 259 258 258 259 259 260 261 261 260 260 260 260 260 261 261 262 261 260 260 260 259 259 258 258 257 257 257 258 258 258 259 260 260 260 259 260 260 260 260 261 262
268 267 267 265 263 263 262 261 261 261 260 260 261 261 262 263 263 263 263 263 263 263 263 263 263 261 260 260 260 259 259 258 258 257 257 257 258 259 259 259 259 258 259 259 259 259 260 261 261
269 268 269 269 267 265 263 263 262 262 262 263 263 263 264 264 265 265 265 265 264 264 264 263 263 263 262 260 260 259 259 258 258 257 257 257 258 259 258 258 258 258 258 258 258 258 259 260 260
271 272 273 273 271 267 266 265 265 264 265 265 264 265 265 265 265 266 266 267 267 267 266 266 265 264 263 261 260 260 259 258 258 257 257 257 257 257 257 256 257 257 257 257 257 258 259 260 260
273 274 274 275 274 271 269 267 267 268 267 267 266 267 267 267 267 267 268 269 269 269 268 267 267 266 264 263 261 260 259 258 258 257 257 257 257 257 256 256 256 256 256 256 257 258 259 259 260
274 274 276 276 275 272 271 270 269 270 270 270 268 268 268 268 268 270 271 271 271 271 270 270 268 267 265 264 263 261 259 258 257 257 257 257 256 257 257 257 256 256 255 256 257 258 258 259 260
276 276 277 277 275 273 272 273 271 270 272 273 271 270 269 269 270 271 272 273 273 273 273 271 270 268 266 265 264 261 259 258 257 257 257 256 255 256 256 256 256 256 255 255 256 257 258 258 259
278 276 277 278 277 275 274 274 275 274 274 274 274 273 273 272 272 272 273 273 273 274 273 272 270 269 268 267 265 262 259 257 256 256 256 256 256 256 256 256 256 256 255 256 257 257 258 258 258
278 278 278 279 278 277 276 275 276 276 276 276 276 276 276 275 274 274 274 274 274 274 273 273 271 270 269 269 267 263 260 257 256 255 254 255 257 256 256 256 256 256 256 257 258 258 257 258 258
278 278 279 278 279 279 278 276 276 276 277 278 278 278 278 276 275 275 274 274 275 274 273 274 273 272 271 270 268 265 261 259 256 254 253 256 257 257 256 256 257 256 256 257 258 258 258 258 258
278 279 279 279 279 279 279 278 277 277 278 279 279 279 279 278 277 275 274 274 275 274 274 275 275 273 271 270 268 265 262 260 258 256 254 256 257 257 257 257 258 257 256 257 258 258 258 258 258
278 278 278 279 280 281 282 282 280 280 280 280 281 281 280 280 278 276 275 275 276 276 276 276 274 273 272 271 269 267 263 260 260 259 258 256 256 256 257 258 258 258 258 258 257 257 258 258 257
278 277 278 279 280 281 282 283 283 283 282 281 282 282 281 280 279 277 276 277 277 277 277 277 276 275 275 272 270 267 264 262 261 262 260 259 257 257 258 257 257 258 258 258 257 256 256 256 256
278 277 278 278 279 281 283 283 284 285 285 284 283 282 281 280 280 279 277 276 277 277 278 278 278 277 276 273 270 268 266 264 264 264 263 261 258 257 257 256 257 258 258 257 256 255 256 255 255
278 278 278 279 280 282 283 284 284 286 286 285 285 283 282 282 281 279 278 278 279 279 280 279 279 277 275 274 272 268 267 265 264 264 264 261 259 257 256 255 256 257 257 256 255 255 254 254 254
277 278 279 280 282 283 284 285 286 288 288 287 286 285 284 283 282 280 280 280 280 281 282 281 280 278 275 275 273 269 267 266 265 265 263 262 260 258 257 256 256 257 257 255 255 254 253 253 254
277 277 279 280 280 281 283 285 286 288 288 287 287 286 285 285 284 282 281 281 282 282 283 283 281 279 277 276 272 269 267 267 265 265 263 262 261 258 257 255 256 256 256 255 254 254 254 252 251
276 277 278 279 281 282 283 285 288 288 289 289 289 288 286 285 285 283 283 282 283 283 284 284 282 278 278 278 273 269 268 267 265 264 264 264 263 259 257 256 257 255 256 255 255 254 254 253 252
275 275 276 277 278 281 283 285 286 289 290 289 288 287 285 284 284 284 284 283 284 284 284 284 282 278 276 277 274 272 269 267 268 266 265 264 264 262 258 256 256 255 256 255 255 255 253 253 253
275 275 275 275 277 279 281 282 284 286 288 288 287 286 285 285 285 286 287 286 285 284 283 282 281 279 277 276 274 271 269 268 268 267 265 265 264 261 258 256 255 254 255 255 255 254 252 253 253
Height
5801 5802 5804 5806 5807 5808 5810 5812 5813 5814 5816 5818 5819 5821 5822 5823 5825 5827 5828 5829 5831 5832 5834 5835 5836 5837 5839 5840 5841 5842 5843 5844 5845 5846 5847 5848 5849 5850 5851 5852 5852 5853 5854 5855 5855 5856 5856 5856 5856
5796 5797 5799 5801 5802 5803 5806 5807 5808 5810 5813 5814 5815 5817 5818 5819 5820 5822 5823 5825 5826 5828 5830 5831 5832 5833 5835 5836 5837 5838 5839 5840 5841 5843 5844 5845 5846 5847 5848 5849 5849 5850 5851 5852 5852 5853 5853 5854 5854
5791 5792 5794 5795 5797 5799 5801 5802 5804 5806 5808 5809 5811 5812 5813 5815 5816 5817 5819 5820 5822 5823 5825 5826 5828 5829 5830 5832 5833 5834 5835 5836 5837 5839 5840 5841 5842 5843 5844 5845 5846 5847 5847 5848 5849 5849 5850 5851 5851
5786 5787 5789 5791 5792 5794 5795 5797 5799 5801 5802 5804 5805 5807 5808 5810 5811 5812 5813 5815 5816 5818 5820 5821 5823 5824 5825 5827 5828 5829 5831 5832 5833 5834 5836 5837 5838 5839 5840 5841 5842 5842 5843 5844 5845 5846 5846 5847 5847
5780 5781 5782 5784 5786 5788 5789 5791 5793 5795 5797 5798 5800 5801 5802 5804 5805 5806 5808 5810 5811 5812 5814 5816 5817 5819 5820 5822 5823 5824 5825 5827 5828 5829 5831 5832 5833 5834 5835 5836 5837 5838 5839 5840 5841 5841 5842 5843 5843
5774 5775 5777 5778 5780 5782 5783 5785 5787 5788 5790 5792 5794 5795 5797 5798 5799 5801 5802 5804 5805 5807 5808 5810 5811 5813 5814 5816 5817 5818 5820 5821 5822 5823 5825 5826 5828 5829 5830 5831 5832 5833 5834 5835 5836 5837 5837 5838 5839
5769 5769 5770 5772 5773 5774 5777 5779 5780 5781 5783 5785 5787 5788 5790 5791 5793 5795 5796 5797 5799 5800 5802 5803 5805 5806 5808 5809 5811 5812 5813 5815 5816 5817 5819 5820 5821 5823 5824 5826 5827 5828 5829 5830 5830 5831 5832 5833 5834
5762 5763 5764 5765 5766 5768 5770 5771 5773 5774 5776 5778 5779 5781 5783 5784 5786 5788 5789 5790 5792 5793 5795 5796 5797 5799 5801 5802 5804 5805 5806 5808 5809 5810 5812 5813 5815 5816 5818 5819 5820 5822 5823 5824 5825 5826 5827 5827 5828
5756 5757 5758 5759 5760 5761 5763 5764 5765 5767 5769 5770 5771 5773 5775 5776 5778 5780 5781 5783 5784 5785 5787 5788 5790 5791 5793 5794 5796 5797 5799 5800 5801 5803 5804 5806 5807 5809 5810 5812 5814 5815 5816 5817 5818 5820 5821 5822 5823
5750 5750 5752 5752 5753 5754 5755 5756 5758 5760 5761 5762 5764 5765 5766 5768 5770 5771 5773 5774 5776 5777 5778 5780 5781 5783 5784 5785 5787 5789 5790 5792 5793 5795 5797 5798 5800 5801 5803 5805 5806 5808 5809 5810 5811 5813 5814 5815 5817
5743 5744 5744 5744 5745 5746 5747 5749 5750 5751 5753 5754 5756 5757 5758 5759 5761 5762 5763 5765 5766 5768 5769 5770 5771 5773 5774 5776 5778 5779 5781 5783 5784 5786 5788 5790 5791 5793 5794 5796 5798 5800 5801 5803 5804 5805 5807 5808 5810
5737 5737 5737 5737 5737 5738 5740 5741 5742 5744 5745 5746 5747 5748 5750 5751 5752 5753 5754 5755 5756 5758 5759 5760 5761 5762 5764 5765 5767 5769 5771 5773 5774 5776 5778 5780 5782 5784 5785 5787 5789 5791 5793 5795 5796 5797 5799 5800 5802
5730 5731 5730 5730 5730 5731 5732 5733 5734 5736 5737 5737 5739 5740 5741 5742 5743 5744 5744 5745 5746 5747 5748 5749 5750 5751 5753 5754 5755 5758 5760 5762 5764 5766 5768 5770 5772 5774 5775 5777 5780 5782 5784 5785 5787 5789 5790 5792 5794
5724 5724 5724 5723 5723 5723 5724 5725 5726 5728 5728 5729 5730 5731 5731 5732 5733 5734 5734 5735 5736 5736 5737 5738 5738 5739 5740 5742 5743 5745 5748 5750 5752 5754 5757 5758 5761 5763 5765 5767 5769 5772 5774 5776 5778 5780 5781 5783 5785
5717 5717 5717 5717 5716 5716 5716 5718 5719 5719 5719 5720 5720 5721 5722 5722 5723 5724 5724 5724 5724 5725 5725 5725 5726 5726 5727 5728 5730 5732 5735 5737 5740 5742 5744 5746 5749 5751 5752 5755 5758 5761 5763 5766 5768 5770 5771 5773 5776
5711 5710 5710 5711 5709 5708 5710 5711 5711 5710 5710 5710 5711 5711 5711 5712 5712 5713 5713 5713 5713 5713 5713 5712 5712 5712 5713 5714 5716 5718 5720 5723 5726 5728 5731 5733 5736 5738 5740 5743 5746 5749 5752 5754 5757 5759 5761 5763 5765
5704 5703 5703 5703 5701 5700 5700 5702 5703 5701 5700 5701 5701 5700 5700 5701 5701 5701 5701 5701 5700 5699 5699 5698 5698 5697 5698 5699 5700 5702 5705 5708 5711 5714 5717 5719 5722 5724 5727 5730 5733 5736 5739 5742 5745 5748 5750 5752 5754
5696 5695 5695 5694 5693 5692 5692 5693 5693 5692 5691 5691 5690 5690 5690 5689 5690 5689 5689 5688 5687 5686 5685 5685 5684 5683 5683 5683 5684 5686 5689 5692 5695 5698 5702 5704 5707 5710 5713 5716 5719 5722 5726 5729 5732 5735 5738 5740 5742
5688 5687 5687 5687 5685 5683 5683 5684 5684 5682 5682 5681 5680 5679 5679 5678 5677 5677 5676 5675 5674 5673 5672 5671 5671 5670 5670 5669 5669 5671 5674 5677 5680 5683 5687 5689 5692 5695 5698 5702 5705 5709 5713 5716 5719 5722 5725 5727 5729
5680 5679 5678 5678 5676 5675 5674 5674 5674 5674 5672 5671 5670 5669 5668 5666 5665 5665 5664 5662 5661 5660 5659 5658 5657 5656 5656 5655 5655 5656 5658 5661 5665 5669 5673 5675 5678 5681 5685 5688 5691 5694 5698 5701 5704 5707 5710 5714 5716
5672 5670 5669 5668 5667 5666 5664 5665 5665 5665 5663 5662 5660 5658 5657 5655 5654 5653 5651 5650 5648 5647 5647 5646 5645 5644 5643 5642 5642 5643 5645 5648 5651 5655 5659 5661 5664 5667 5670 5673 5676 5680 5683 5686 5689 5692 5696 5700 5703
5663 5662 5660 5658 5657 5656 5655 5653 5656 5655 5653 5651 5649 5647 5645 5644 5642 5641 5639 5638 5637 5636 5634 5633 5633 5632 5631 5630 5630 5631 5633 5636 5639 5642 5645 5648 5650 5653 5655 5658 5662 5665 5668 5671 5674 5677 5681 5684 5688
5653 5652 5651 5649 5647 5646 5646 5643 5645 5644 5643 5641 5639 5637 5635 5633 5631 5630 5629 5627 5626 5624 5623 5622 5621 5620 5619 5619 5620 5620 5622 5625 5627 5629 5631 5634 5636 5639 5641 5644 5648 5650 5653 5656 5659 5663 5666 5669 5673
5643 5642 5641 5638 5637 5636 5638 5634 5634 5634 5633 5631 5629 5626 5624 5622 5621 5619 5618 5617 5615 5614 5612 5612 5611 5609 5608 5608 5608 5609 5611 5612 5614 5616 5618 5620 5623 5625 5628 5631 5634 5636 5639 5642 5645 5649 5652 5655 5659
5634 5633 5631 5628 5626 5627 5627 5624 5626 5625 5623 5621 5619 5616 5614 5612 5610 5608 5607 5607 5605 5604 5602 5601 5600 5599 5598 5598 5597 5597 5599 5600 5601 5603 5604 5607 5609 5612 5615 5618 5620 5623 5626 5628 5632 5635 5639 5642 5646
5624 5623 5622 5619 5617 5616 5616 5614 5616 5614 5612 5610 5608 5607 5604 5602 5600 5598 5597 5596 5595 5593 5592 5590 5588 5588 5587 5586 5585 5586 5586 5587 5589 5590 5591 5594 5596 5599 5602 5605 5607 5610 5613 5616 5619 5622 5626 5630 5633
5614 5613 5612 5610 5607 5605 5606 5606 5606 5604 5601 5599 5597 5596 5594 5592 5589 5587 5586 5586 5585 5583 5581 5579 5577 5575 5575 5574 5573 5574 5574 5575 5577 5578 5579 5581 5583 5586 5589 5592 5594 5597 5600 5603 5606 5610 5614 5617 5621
5605 5603 5602 5600 5597 5595 5596 5597 5596 5594 5591 5589 5587 5584 5583 5581 5578 5577 5576 5575 5574 5572 5571 5569 5567 5564 5563 5562 5562 5562 5563 5564 5565 5566 5567 5569 5571 5573 5576 5579 5581 5585 5588 5591 5594 5598 5602 5605 5609
5595 5594 5592 5590 5588 5586 5585 5589 5587 5584 5582 5579 5577 5574 5572 5570 5568 5567 5566 5564 5563 5561 5559 5558 5556 5554 5552 5551 5551 5551 5552 5553 5554 5555 5557 5558 5559 5561 5563 5566 5569 5573 5576 5579 5582 5586 5589 5593 5597
5584 5583 5582 5581 5579 5577 5575 5580 5579 5576 5572 5569 5566 5564 5562 5560 5558 5557 5555 5553 5552 5550 5548 5546 5544 5543 5542 5541 5541 5541 5542 5543 5544 5545 5547 5548 5549 5550 5552 5555 5558 5561 5564 5567 5570 5573 5577 5581 5585